Notices

What's New in latest Release from April 7th, 2021:

- Updated Glossary, including Speed of Maximum Gust, and Total Hourly Precipitation

- Updated national and regional climate services offices contacts and prices information

- Addition of station inventory lists for 1981-2010, 1971-2000, and 1961-1990 Normals.

If you haven't already, please take our survey and provide feedback about our website: https://eccc.sondage-survey.ca/f/LanguageSelection.aspx?s=442ca660-fcf1-47c0-95a9-59707d6fd709

Hourly Data Report for December 16, 2020

SHEARWATER RCS
NOVA SCOTIA
Current Station Operator: ECCC - MSC

44°37'47.000" N
63°30'48.000" W
24.00 m
8205092
71264
AAW

Download Data

Hourly Data (December 2020)
Hourly Data Report for December 16, 2020
TIME
LST
Temp Definition
°C
Dew Point Definition
°C
Rel Hum Definition
%
Precip. Amount Definition
mm

Wind Dir Definition
10's deg

Wind Spd Definition
km/h
Visibility Definition
km
Stn Press Definition
kPa
Hmdx Definition


Wind Chill Definition


Weather Definition


00:00 -7.8 -13.1 66 0.2 29 26   101.39   -16 LegendNANA
01:00 -8.0 -13.0 67 0.0 29 22   101.40   -16 LegendNANA
02:00 -8.3 -12.6 71 0.0 29 21   101.49   -16 LegendNANA
03:00 -8.8 -13.6 69 0.0 30 26   101.59   -17 LegendNANA
04:00 -9.0 -13.3 71 0.0 31 30   101.62   -18 LegendNANA
05:00 -9.2 -13.0 74 0.0 29 19   101.77   -17 LegendNANA
06:00 -9.0 -12.6 75 0.0 30 18   101.85   -16 LegendNANA
07:00 -9.0 -12.7 74 0.0 31 18   101.89   -16 LegendNANA
08:00 -8.7 -12.2 76 0.0 29 20   101.96   -16 LegendNANA
09:00 -8.2 -11.8 75 0.0 30 23   102.05   -16 LegendNANA
10:00 -7.0 -11.7 69 0.0 29 19   102.16   -14 LegendNANA
11:00 -5.7 -11.6 63 0.0 31 20   102.15   -12 LegendNANA
12:00 -4.1 -11.3 57 0.0 29 12   102.11   -9 LegendNANA
13:00 -3.3 -11.4 54 0.0 29 14   102.11   -8 LegendNANA
14:00 -2.9 -12.3 49 0.0 29 14   102.11   -8 LegendNANA
15:00 -3.4 -12.9 48 0.0 30 19   102.16   -9 LegendNANA
16:00 -4.2 -14.1 46 0.0 32 19   102.21   -10 LegendNANA
17:00 -5.4 -13.0 55 0.0 32 13   102.32   -11 LegendNANA
18:00 -6.2 -13.7 55 0.0 31 18   102.41   -13 LegendNANA
19:00 -6.6 -12.6 62 0.0 30 16   102.42   -13 LegendNANA
20:00 -6.8 -12.3 65 0.0 32 11   102.40   -12 LegendNANA
21:00 -7.2 -12.4 66 0.0 32 10   102.45   -12 LegendNANA
22:00 -7.3 -12.5 66 0.0 33 8   102.40   -11 LegendNANA
23:00 -7.5 -14.4 58 0.0 34 14   102.42   -13 LegendNANA

Notes on Data Quality.

Legend

  • E = Estimated
  • M = Missing
  • NA = Not Available*
  • [empty] = Indicates an unobserved value
Date modified: